| time (UTC) | temp C | wind direction | speed KPH | gust KPH | rain 1hr cm | rain 24hr cm | rain mn cm | humidity % | barometer mb |
| 20260503193843 | 13 | 289 | 12.9 | 20.9 | 0.00 | 0.00 | 0.00 | 37 | 976.5 |
| 20260503193343 | 13 | 318 | 14.5 | 22.5 | 0.00 | 0.00 | 0.00 | 38 | 976.6 |
| 20260503192842 | 13 | 325 | 12.9 | 25.7 | 0.00 | 0.00 | 0.00 | 40 | 976.6 |
| 20260503191821 | 13 | 286 | 6.4 | 11.3 | 0.00 | 0.00 | 0.00 | 41 | 976.8 |
| 20260503191321 | 13 | 284 | 12.9 | 19.3 | 0.00 | 0.00 | 0.00 | 40 | 976.9 |
| 20260503190821 | 13 | 284 | 16.1 | 27.4 | 0.00 | 0.00 | 0.00 | 42 | 977.0 |
| 20260503185759 | 13 | 269 | 16.1 | 24.1 | 0.00 | 0.00 | 0.00 | 44 | 977.2 |
| 20260503185259 | 13 | 289 | 11.3 | 20.9 | 0.00 | 0.00 | 0.00 | 44 | 977.2 |
| 20260503184237 | 13 | 320 | 12.9 | 16.1 | 0.00 | 0.00 | 0.00 | 41 | 977.3 |
| 20260503183736 | 13 | 278 | 11.3 | 19.3 | 0.00 | 0.00 | 0.00 | 40 | 977.1 |
| 20260503183236 | 13 | 302 | 12.9 | 17.7 | 0.00 | 0.00 | 0.00 | 39 | 977.1 |
| 20260503182736 | 13 | 312 | 14.5 | 17.7 | 0.00 | 0.00 | 0.00 | 38 | 977.1 |
| 20260503182236 | 13 | 303 | 11.3 | 17.7 | 0.00 | 0.00 | 0.00 | 38 | 977.2 |
| 20260503181736 | 13 | 340 | 16.1 | 20.9 | 0.00 | 0.00 | 0.00 | 38 | 977.2 |
| 20260503181235 | 13 | 266 | 8.0 | 16.1 | 0.00 | 0.00 | 0.00 | 38 | 977.2 |
| 20260503180734 | 14 | 307 | 14.5 | 25.7 | 0.00 | 0.00 | 0.00 | 38 | 977.2 |
| 20260503180234 | 14 | 289 | 8.0 | 16.1 | 0.00 | 0.00 | 0.00 | 35 | 977.1 |
| 20260503175734 | 15 | 278 | 16.1 | 30.6 | 0.00 | 0.00 | 0.00 | 34 | 977.0 |
| 20260503174712 | 15 | 283 | 14.5 | 19.3 | 0.00 | 0.00 | 0.00 | 33 | 977.1 |
| 20260503173651 | 14 | 290 | 8.0 | 14.5 | 0.00 | 0.00 | 0.00 | 36 | 977.1 |
| 20260503173151 | 14 | 282 | 11.3 | 24.1 | 0.00 | 0.00 | 0.00 | 35 | 977.1 |
| 20260503172651 | 15 | 270 | 11.3 | 22.5 | 0.00 | 0.00 | 0.00 | 35 | 977.2 |
| 20260503171628 | 14 | 255 | 9.7 | 16.1 | 0.00 | 0.00 | 0.00 | 36 | 977.4 |
| 20260503150810 | 10 | 259 | 12.9 | 17.7 | 0.00 | 0.00 | 0.00 | 41 | 979.1 |
| 20260503150309 | 10 | 269 | 9.7 | 14.5 | 0.00 | 0.00 | 0.00 | 41 | 979.1 |
| 20260503140224 | 8 | 259 | 14.5 | 20.9 | 0.00 | 0.00 | 0.00 | 42 | 979.8 |
| 20260503131218 | 7 | 293 | 9.7 | 16.1 | 0.00 | 0.00 | 0.00 | 44 | 980.3 |
| 20260503130718 | 7 | 261 | 8.0 | 12.9 | 0.00 | 0.00 | 0.00 | 43 | 980.3 |
| 20260503120112 | 3 | 266 | 11.3 | 16.1 | 0.00 | 0.00 | 0.00 | 62 | 980.9 |
| 20260503110608 | 2 | 276 | 6.4 | 9.7 | 0.00 | 0.00 | 0.00 | 68 | 980.8 |
| 20260503110107 | 2 | 281 | 6.4 | 9.7 | 0.00 | 0.00 | 0.00 | 69 | 980.8 |
| 20260503090458 | 2 | 262 | 6.4 | 11.3 | 0.00 | 0.00 | 0.00 | 69 | 980.9 |
| 20260503081435 | 1 | 253 | 4.8 | 6.4 | 0.00 | 0.00 | 0.00 | 72 | 980.9 |
| 20260503080934 | 1 | 240 | 4.8 | 6.4 | 0.00 | 0.00 | 0.00 | 72 | 980.9 |
| 20260503080434 | 1 | 269 | 6.4 | 8.0 | 0.00 | 0.00 | 0.00 | 73 | 980.9 |
| 20260503072351 | 2 | 239 | 4.8 | 9.7 | 0.00 | 0.00 | 0.00 | 72 | 980.9 |
| 20260503071850 | 1 | 251 | 8.0 | 12.9 | 0.00 | 0.00 | 0.00 | 72 | 980.9 |
| 20260503071350 | 1 | 227 | 4.8 | 9.7 | 0.00 | 0.00 | 0.00 | 74 | 980.9 |
| 20260503070850 | 1 | 233 | 3.2 | 6.4 | 0.00 | 0.00 | 0.00 | 74 | 980.9 |
| 20260503070350 | 1 | 236 | 3.2 | 3.2 | 0.00 | 0.00 | 0.00 | 74 | 981.0 |
| 20260503054825 | 1 | 194 | 3.2 | 4.8 | 0.00 | 0.00 | 0.00 | 72 | 981.7 |
| 20260503054325 | 1 | 195 | 3.2 | 3.2 | 0.00 | 0.00 | 0.00 | 72 | 981.7 |
| 20260503052221 | 1 | 223 | 3.2 | 3.2 | 0.00 | 0.00 | 0.00 | 68 | 981.9 |
| 20260503051721 | 1 | 243 | 3.2 | 4.8 | 0.00 | 0.00 | 0.00 | 68 | 981.9 |
| 20260503051221 | 1 | 224 | 3.2 | 3.2 | 0.00 | 0.00 | 0.00 | 68 | 981.9 |
| 20260503050159 | 1 | 219 | 3.2 | 4.8 | 0.00 | 0.00 | 0.00 | 67 | 982.0 |
| 20260503045659 | 1 | 238 | 3.2 | 6.4 | 0.00 | 0.00 | 0.00 | 66 | 982.1 |
| 20260503045159 | 1 | 245 | 4.8 | 6.4 | 0.00 | 0.00 | 0.00 | 66 | 982.1 |
| 20260503044658 | 1 | 225 | 1.6 | 3.2 | 0.00 | 0.00 | 0.00 | 66 | 982.1 |
| 20260503044158 | 1 | 228 | 3.2 | 3.2 | 0.00 | 0.00 | 0.00 | 66 | 982.1 |
| 20260503043658 | 1 | 198 | 3.2 | 3.2 | 0.00 | 0.00 | 0.00 | 66 | 982.2 |
| 20260503042115 | 1 | 225 | 3.2 | 3.2 | 0.00 | 0.00 | 0.00 | 64 | 982.2 |
| 20260503041615 | 1 | 240 | 3.2 | 4.8 | 0.00 | 0.00 | 0.00 | 63 | 982.2 |
| 20260503041115 | 1 | 230 | 3.2 | 3.2 | 0.00 | 0.00 | 0.00 | 64 | 982.3 |
| 20260503040615 | 1 | 220 | 3.2 | 3.2 | 0.00 | 0.00 | 0.00 | 62 | 982.3 |
| 20260503035553 | 1 | 248 | 4.8 | 6.4 | 0.00 | 0.00 | 0.00 | 63 | 982.3 |
| 20260503035053 | 1 | 243 | 3.2 | 4.8 | 0.00 | 0.00 | 0.00 | 65 | 982.3 |
| 20260503034553 | 1 | 204 | 3.2 | 3.2 | 0.00 | 0.00 | 0.00 | 64 | 982.3 |
| 20260503033531 | 1 | 189 | 3.2 | 3.2 | 0.00 | 0.00 | 0.00 | 64 | 982.3 |
| 20260503033031 | 1 | 197 | 3.2 | 3.2 | 0.00 | 0.00 | 0.00 | 64 | 982.4 |
| 20260503032010 | 0 | 213 | 1.6 | 3.2 | 0.00 | 0.00 | 0.00 | 66 | 982.5 |
| 20260503031510 | 0 | 215 | 3.2 | 3.2 | 0.00 | 0.00 | 0.00 | 66 | 982.5 |
| 20260503031009 | 0 | 200 | 3.2 | 3.2 | 0.00 | 0.00 | 0.00 | 65 | 982.5 |
| 20260503030509 | 0 | 201 | 3.2 | 3.2 | 0.00 | 0.00 | 0.00 | 66 | 982.5 |
| 20260503030009 | 0 | 209 | 1.6 | 3.2 | 0.00 | 0.00 | 0.00 | 66 | 982.5 |
| 20260503024947 | 1 | 206 | 3.2 | 3.2 | 0.00 | 0.00 | 0.00 | 64 | 982.6 |
| 20260503024447 | 1 | 208 | 3.2 | 3.2 | 0.00 | 0.00 | 0.00 | 64 | 982.6 |
| 20260503023947 | 1 | 198 | 3.2 | 3.2 | 0.00 | 0.00 | 0.00 | 64 | 982.7 |
| 20260503023447 | 1 | 213 | 1.6 | 3.2 | 0.00 | 0.00 | 0.00 | 63 | 982.7 |
| 20260503022946 | 1 | 223 | 1.6 | 3.2 | 0.00 | 0.00 | 0.00 | 61 | 982.8 |
| 20260503022446 | 1 | 209 | 3.2 | 3.2 | 0.00 | 0.00 | 0.00 | 62 | 982.8 |
| 20260503021946 | 1 | 0 | 0.0 | 0.0 | 0.00 | 0.00 | 0.00 | 62 | 982.8 |
| 20260503021446 | 1 | 194 | 3.2 | 3.2 | 0.00 | 0.00 | 0.00 | 63 | 982.8 |
| 20260503020946 | 1 | 0 | 0.0 | 0.0 | 0.00 | 0.00 | 0.00 | 61 | 982.8 |
| 20260503020445 | 1 | 0 | 0.0 | 0.0 | 0.00 | 0.00 | 0.00 | 60 | 982.7 |
| 20260503015945 | 1 | 250 | 1.6 | 3.2 | 0.00 | 0.00 | 0.00 | 60 | 982.7 |
| 20260503015445 | 1 | 0 | 0.0 | 0.0 | 0.00 | 0.00 | 0.00 | 57 | 982.7 |
| 20260503014944 | 1 | 232 | 3.2 | 3.2 | 0.00 | 0.00 | 0.00 | 57 | 982.7 |
| 20260503014444 | 1 | 236 | 3.2 | 3.2 | 0.00 | 0.00 | 0.00 | 56 | 982.7 |
| 20260503013944 | 1 | 220 | 0.0 | 1.6 | 0.00 | 0.00 | 0.00 | 55 | 982.6 |
| 20260503013443 | 1 | 0 | 0.0 | 0.0 | 0.00 | 0.00 | 0.00 | 54 | 982.6 |
| 20260503012942 | 2 | 235 | 1.6 | 3.2 | 0.00 | 0.00 | 0.00 | 53 | 982.7 |
| 20260503012442 | 2 | 0 | 0.0 | 0.0 | 0.00 | 0.00 | 0.00 | 52 | 982.6 |
| 20260503011942 | 2 | 0 | 0.0 | 0.0 | 0.00 | 0.00 | 0.00 | 50 | 982.6 |
| 20260503011442 | 2 | 0 | 0.0 | 0.0 | 0.00 | 0.00 | 0.00 | 48 | 982.6 |
| 20260503010942 | 3 | 0 | 0.0 | 0.0 | 0.00 | 0.00 | 0.00 | 47 | 982.6 |
| 20260503010441 | 3 | 219 | 3.2 | 3.2 | 0.00 | 0.00 | 0.00 | 47 | 982.6 |
| 20260503005940 | 3 | 229 | 1.6 | 3.2 | 0.00 | 0.00 | 0.00 | 44 | 982.5 |
| 20260503004918 | 4 | 0 | 0.0 | 0.0 | 0.00 | 0.00 | 0.00 | 42 | 982.4 |
| 20260503002814 | 5 | 341 | 4.8 | 8.0 | 0.00 | 0.00 | 0.00 | 36 | 982.3 |
| 20260503002313 | 5 | 342 | 4.8 | 11.3 | 0.00 | 0.00 | 0.00 | 35 | 982.2 |
| 20260503001812 | 6 | 342 | 6.4 | 9.7 | 0.00 | 0.00 | 0.00 | 34 | 982.2 |
| 20260503001312 | 6 | 346 | 9.7 | 12.9 | 0.00 | 0.00 | 0.00 | 33 | 982.2 |
| 20260503000812 | 6 | 338 | 4.8 | 6.4 | 0.00 | 0.00 | 0.00 | 32 | 982.2 |
| 20260503000311 | 6 | 333 | 6.4 | 9.7 | 0.00 | 0.00 | 0.00 | 32 | 982.2 |
| 20260502235811 | 6 | 345 | 6.4 | 9.7 | 0.00 | 0.00 | 0.00 | 31 | 982.2 |
| 20260502234749 | 6 | 336 | 3.2 | 4.8 | 0.00 | 0.00 | 0.00 | 30 | 982.2 |
| 20260502234248 | 6 | 338 | 6.4 | 8.0 | 0.00 | 0.00 | 0.00 | 30 | 982.2 |
| 20260502233748 | 6 | 322 | 6.4 | 12.9 | 0.00 | 0.00 | 0.00 | 28 | 982.1 |
| 20260502233248 | 6 | 350 | 8.0 | 11.3 | 0.00 | 0.00 | 0.00 | 27 | 982.1 |
| 20260502232748 | 7 | 339 | 8.0 | 14.5 | 0.00 | 0.00 | 0.00 | 27 | 982.1 |
| 20260502232248 | 7 | 349 | 11.3 | 16.1 | 0.00 | 0.00 | 0.00 | 25 | 982.1 |
| 20260502231748 | 7 | 5 | 6.4 | 11.3 | 0.00 | 0.00 | 0.00 | 27 | 982.1 |
| 20260502231247 | 7 | 345 | 9.7 | 14.5 | 0.00 | 0.00 | 0.00 | 25 | 982.1 |
| 20260502230746 | 7 | 326 | 11.3 | 16.1 | 0.00 | 0.00 | 0.00 | 26 | 982.1 |
| 20260502230246 | 7 | 346 | 8.0 | 12.9 | 0.00 | 0.00 | 0.00 | 26 | 982.1 |
| 20260502225746 | 7 | 10 | 8.0 | 14.5 | 0.00 | 0.00 | 0.00 | 26 | 982.2 |
| 20260502225245 | 7 | 341 | 6.4 | 12.9 | 0.00 | 0.00 | 0.00 | 26 | 982.2 |
| 20260502224745 | 7 | 342 | 14.5 | 19.3 | 0.00 | 0.00 | 0.00 | 25 | 982.2 |
| 20260502223724 | 7 | 343 | 8.0 | 11.3 | 0.00 | 0.00 | 0.00 | 26 | 982.2 |
| 20260502222702 | 7 | 345 | 8.0 | 12.9 | 0.00 | 0.00 | 0.00 | 27 | 982.2 |
| 20260502222202 | 7 | 2 | 8.0 | 12.9 | 0.00 | 0.00 | 0.00 | 27 | 982.2 |
| 20260502221140 | 7 | 357 | 8.0 | 12.9 | 0.00 | 0.00 | 0.00 | 28 | 982.3 |
| 20260502220640 | 7 | 357 | 6.4 | 8.0 | 0.00 | 0.00 | 0.00 | 28 | 982.2 |
| 20260502220140 | 7 | 3 | 6.4 | 14.5 | 0.00 | 0.00 | 0.00 | 29 | 982.2 |
| 20260502215640 | 7 | 342 | 6.4 | 16.1 | 0.00 | 0.00 | 0.00 | 29 | 982.2 |
| 20260502215140 | 7 | 351 | 12.9 | 16.1 | 0.00 | 0.00 | 0.00 | 28 | 982.2 |
| 20260502214639 | 7 | 7 | 8.0 | 12.9 | 0.00 | 0.00 | 0.00 | 30 | 982.2 |
| 20260502214139 | 7 | 342 | 14.5 | 19.3 | 0.00 | 0.00 | 0.00 | 30 | 982.2 |
| 20260502213639 | 7 | 8 | 6.4 | 11.3 | 0.00 | 0.00 | 0.00 | 30 | 982.2 |
| 20260502213139 | 7 | 8 | 11.3 | 14.5 | 0.00 | 0.00 | 0.00 | 32 | 982.2 |
| 20260502212638 | 7 | 19 | 6.4 | 11.3 | 0.00 | 0.00 | 0.00 | 31 | 982.2 |
| 20260502212138 | 6 | 310 | 6.4 | 9.7 | 0.00 | 0.00 | 0.00 | 32 | 982.2 |
| 20260502211638 | 6 | 344 | 9.7 | 12.9 | 0.00 | 0.00 | 0.00 | 35 | 982.2 |
| 20260502211138 | 6 | 0 | 9.7 | 14.5 | 0.00 | 0.00 | 0.00 | 34 | 982.2 |
| 20260502210637 | 6 | 351 | 9.7 | 17.7 | 0.00 | 0.00 | 0.00 | 35 | 982.2 |
| 20260502210137 | 6 | 0 | 9.7 | 14.5 | 0.00 | 0.00 | 0.00 | 36 | 982.1 |
| 20260502204555 | 6 | 331 | 12.9 | 16.1 | 0.00 | 0.00 | 0.00 | 34 | 982.2 |
| 20260502204054 | 6 | 345 | 9.7 | 16.1 | 0.00 | 0.00 | 0.00 | 34 | 982.3 |
| 20260502203554 | 6 | 19 | 8.0 | 14.5 | 0.00 | 0.00 | 0.00 | 35 | 982.3 |
| 20260502203054 | 6 | 354 | 9.7 | 17.7 | 0.00 | 0.00 | 0.00 | 35 | 982.3 |
| 20260502202554 | 6 | 9 | 8.0 | 14.5 | 0.00 | 0.00 | 0.00 | 35 | 982.4 |
| 20260502202054 | 6 | 329 | 6.4 | 9.7 | 0.00 | 0.00 | 0.00 | 37 | 982.4 |
| 20260502201553 | 6 | 343 | 9.7 | 16.1 | 0.00 | 0.00 | 0.00 | 36 | 982.5 |
| 20260502201052 | 6 | 346 | 12.9 | 16.1 | 0.00 | 0.00 | 0.00 | 38 | 982.5 |
| 20260502200552 | 6 | 355 | 8.0 | 12.9 | 0.00 | 0.00 | 0.00 | 38 | 982.6 |
| 20260502200052 | 6 | 326 | 9.7 | 14.5 | 0.00 | 0.00 | 0.00 | 40 | 982.6 |
| 20260502195552 | 6 | 336 | 11.3 | 16.1 | 0.00 | 0.00 | 0.00 | 40 | 982.7 |
| 20260502195051 | 6 | 343 | 11.3 | 16.1 | 0.00 | 0.00 | 0.00 | 40 | 982.7 |
| 20260502194550 | 6 | 352 | 6.4 | 9.7 | 0.00 | 0.00 | 0.00 | 43 | 982.7 |